Tiempo atmosférico en la estación meteorológica de Sitges, Barcelona (54 m.)



Fecha
DESCASC
Temp. máxima en grados centígrados (hora)
DESCASC
Temp. mínima en grados centígrados (hora)
DESCASC
Temp. media en grados centígrados
DESCASC
Racha de viento máxima en m/sg (hora)
DESCASC
Velocidad máxima media en intervalos de 10 minutos(hora)
DESCASC
Precipitaciones diarias en mm
DESCASC
Precipitaciones de 00:00 a 06:00 en mm
DESCASC
Precipitaciones de 06:00 a 12:00 en mm
DESCASC
Precipitaciones de 12:00 a 18:00 en mm
DESCASC
Precipitaciones de 18:00 a 24:00 en mm
DESCASC
22-01-2020 14.4 (22:10) 9.3 (00:00) 11.8 15.28 (20:40) 7.22 (20:40) 1 0.6 0.2 0 0.2
21-01-2020 12.5 (13:20) 8.1 (22:30) 10.3 24.72 (13:20) 10.83 (16:20) 39.6 21.2 6.4 5 7
20-01-2020 11.4 (04:00) 8.7 (21:20) 10 23.89 (20:50) 11.39 (21:50) 6.6 0 0 0 6.6
19-01-2020 12.3 (16:00) 9.2 (00:00) 10.8 13.61 (07:00) 7.22 (17:40) 1.8 1.8 0 0 0
18-01-2020 14.5 (11:40) 7.6 (00:00) 11 9.17 (08:00) 4.44 (06:50) 0 0 0 0 0
17-01-2020 17.8 (13:50) 7.4 (00:00) 12.6 11.39 (15:40) 4.44 (18:10) 0 0 0 0 0
16-01-2020 -- (--) -- (--) -- -- (--) -- (--) -- 0 0 -- 0
15-01-2020 13.7 (14:40) 4.8 (00:00) 9.3 6.39 (15:10) 3.06 (15:40) 0 0 0 0 0
14-01-2020 14.1 (12:40) 4.6 (00:00) 9.4 5.28 (13:10) 2.78 (13:10) 0 0 0 0 0
13-01-2020 12.3 (14:20) 2.5 (00:00) 7.4 5.28 (15:10) 2.78 (15:00) 0 0 0 0 0
12-01-2020 13.7 (14:30) 4.2 (00:00) 8.9 6.39 (08:20) 3.33 (09:00) 0 0 0 0 0
11-01-2020 12.2 (14:20) 4.1 (00:00) 8.1 8.61 (04:20) 4.72 (04:20) 0 0 0 0 0
10-01-2020 11.6 (02:00) 6 (00:00) 8.8 7.5 (13:50) 4.17 (12:10) 19.6 0 18.6 1 0
09-01-2020 14.5 (13:50) 6.3 (00:00) 10.4 5.56 (16:00) 3.33 (17:20) 0 0 0 0 0
08-01-2020 16 (13:50) 4.7 (00:00) 10.3 3.61 (13:00) 1.67 (14:30) 0 0 0 0 0
07-01-2020 14.1 (13:10) 4.8 (00:00) 9.5 3.89 (15:30) 1.94 (12:10) 0 0 0 0 0
06-01-2020 15.2 (13:10) 4.3 (00:00) 9.8 3.61 (14:20) 2.22 (14:20) 0 0 0 0 0
05-01-2020 13.8 (13:10) 5.8 (00:00) 9.8 9.44 (07:20) 4.17 (07:30) 0 0 0 0 0
04-01-2020 14.5 (12:50) 4 (00:00) 9.3 8.61 (21:30) 3.61 (21:30) 0 0 0 0 0
03-01-2020 13.3 (13:30) 5 (00:00) 9.2 6.39 (01:50) 3.33 (05:40) 0 0 0 0 0
02-01-2020 13.9 (14:40) 3.8 (00:00) 8.8 5.83 (14:20) 2.5 (14:00) 0 0 0 0 0
01-01-2020 -- (--) -- (--) -- -- (--) -- (--) -- 0 -- 0 0
31-12-2019 14.5 (13:50) 4.4 (00:00) 9.5 5.83 (12:50) 3.06 (15:00) 0 0 0 0 0
30-12-2019 14.2 (14:40) 5.7 (00:00) 9.9 4.72 (11:50) 2.22 (12:00) 0 0 0 0 0
29-12-2019 -- (--) -- (--) -- -- (--) -- (--) -- 0 0 -- 0
28-12-2019 14.6 (13:20) 5.6 (00:00) 10.1 4.17 (14:20) 2.22 (14:20) 0 0 0 0 0
27-12-2019 14.5 (14:30) 6.1 (00:00) 10.3 6.67 (08:20) 3.61 (09:50) 0 0 0 0 0
26-12-2019 -- (--) -- (--) -- -- (--) -- (--) -- 0 0 0 --
25-12-2019 18.7 (11:40) 9.7 (00:00) 14.2 7.22 (10:50) 4.17 (10:50) 0 0 0 0 0
24-12-2019 -- (--) -- (--) -- -- (--) -- (--) -- 0 0 0 --

Gráficas

Temp. máximas Temp. mínimas Temp. medias Precipitaciones Rachas de viento máximas Velocidades máximas media en intervalos de 10 minutos

Datos horarios

Fecha y hora oficial Temperatura (ºC) Velocidad del viento (km/h) Dirección del viento Racha (km/h) Dirección de racha Precipitación (mm) Presión (hPa) Tendencia (hPa) Humedad (%)
2020-01-22 23:00:00 14.1 17 Sudeste 51 Sudeste 0 -- -- 92
2020-01-22 22:00:00 14.3 17 Sudeste 45 Este 0 -- -- 90
2020-01-22 21:00:00 14.3 21 Sudeste 55 Este 0 -- -- 91
2020-01-22 20:00:00 14.2 19 Sudeste 45 Este 0.2 -- -- 91
2020-01-22 19:00:00 14.1 20 Sudeste 48 Sudeste 0 -- -- 91
2020-01-22 18:00:00 14.1 22 Sudeste 50 Sudeste 0 -- -- 91
2020-01-22 17:00:00 14.1 20 Sudeste 52 Sudeste 0 -- -- 92
2020-01-22 16:00:00 14.1 12 Este 46 Sudeste 0 -- -- 91
2020-01-22 15:00:00 14.2 20 Sudeste 46 Sudeste 0 -- -- 91
2020-01-22 14:00:00 14.1 17 Este 40 Este 0 -- -- 92
2020-01-22 13:00:00 14 15 Sudeste 33 Sudeste 0 -- -- 93
2020-01-22 12:00:00 13.9 13 Este 40 Sudeste 0.2 -- -- 94
2020-01-22 11:00:00 13.9 12 Sudeste 33 Este 0 -- -- 90
2020-01-22 10:00:00 13.1 10 Sur 21 Sur 0 -- -- 87
2020-01-22 09:00:00 12.7 5 Sudeste 15 Sudeste 0 -- -- 88
2020-01-22 08:00:00 11.5 3 Sudeste 19 Sudeste 0 -- -- 89
2020-01-22 07:00:00 10.3 0 Calma 21 Noroeste 0 -- -- 87
2020-01-22 06:00:00 10.8 9 Noroeste 25 Sur 0 -- -- 85
2020-01-22 05:00:00 10.4 9 Sur 18 Sudeste 0.2 -- -- 91
2020-01-22 04:00:00 10.4 3 Sudoeste 14 Norte 0 -- -- 92
2020-01-22 03:00:00 10.2 2 Noroeste 23 Sur 0 -- -- 93
2020-01-22 02:00:00 10.1 2 Sudoeste 32 Sur 0 -- -- 93
2020-01-22 01:00:00 10.1 8 Sur 21 Sur 0.4 -- -- 99
2020-01-22 00:00:00 9.3 6 Norte 31 Sudeste 0.4 -- -- 98
2020-01-21 23:00:00 8.9 10 Sur 64 Sur 2 -- -- 99
2020-01-21 22:00:00 10.9 19 Sudeste 74 Sudeste 2.4 -- -- 96
2020-01-21 21:00:00 11.8 35 Sudeste 77 Este 1.2 -- -- 90
2020-01-21 20:00:00 11.9 38 Sudeste 78 Sudeste 0.4 -- -- 86
2020-01-21 19:00:00 11.8 33 Sudeste 73 Sudeste 0.6 -- -- 87
2020-01-21 18:00:00 11.7 28 Sudeste 87 Este 0.8 -- -- 89
2020-01-21 17:00:00 11.8 30 Sudeste 68 Este 1.2 -- -- 89
2020-01-21 16:00:00 12.1 34 Sudeste 89 Este 2.2 -- -- 87
2020-01-21 15:00:00 12 32 Sudeste 72 Este 0.4 -- -- 89
2020-01-21 14:00:00 12.5 28 Sudeste 89 Sudeste 0.2 -- -- 87
2020-01-21 13:00:00 12.3 32 Sudeste 66 Este 0.2 -- -- 90
2020-01-21 12:00:00 12 28 Sudeste 69 Sur 0.4 -- -- 92
2020-01-21 11:00:00 11.4 32 Sudeste 71 Sudeste 1.4 -- -- 93
2020-01-21 10:00:00 11.3 33 Sudeste 84 Sudeste 1 -- -- 90
2020-01-21 09:00:00 10.6 34 Sudeste 75 Sudeste 1.4 -- -- 89
2020-01-21 08:00:00 10.5 27 Sudeste 72 Sudeste 1.2 -- -- 88
2020-01-21 07:00:00 10.6 30 Sudeste 69 Sudeste 1 -- -- 86
2020-01-21 06:00:00 10.6 33 Sudeste 68 Este 2.2 -- -- 85
2020-01-21 05:00:00 10.1 33 Sudeste 71 Este 2.6 -- -- 86
2020-01-21 04:00:00 9.1 29 Sudeste 74 Sudeste 4.2 -- -- 85
2020-01-21 03:00:00 8.5 27 Sudeste 61 Sudeste 4 -- -- 85
2020-01-21 02:00:00 8.4 30 Sur 66 Sudeste 4.8 -- -- 84
2020-01-21 01:00:00 8.5 24 Sudeste 71 Sur 3.4 -- -- 83
2020-01-21 00:00:00 8.8 24 Sur 72 Sudeste 1.4 -- -- 79
2020-01-20 23:00:00 9 33 Sudeste 74 Sudeste 1.4 -- -- 78
2020-01-20 22:00:00 8.9 36 Sudeste 76 Sudeste 3.4 -- -- 78
2020-01-20 21:00:00 8.9 39 Sudeste 86 Sudeste 0.2 -- -- 75
2020-01-20 20:00:00 9.4 35 Sudeste 76 Sudeste 0.2 -- -- 70
2020-01-20 19:00:00 9 38 Sudeste 81 Sudeste 0 -- -- 72
2020-01-20 18:00:00 9.2 36 Sudeste 72 Sudeste 0 -- -- 66
2020-01-20 17:00:00 9.7 34 Sudeste 77 Sudeste 0 -- -- 65
2020-01-20 16:00:00 10.2 36 Sudeste 82 Sudeste 0 -- -- 61
2020-01-20 15:00:00 10.5 35 Sudeste 78 Sudeste 0 -- -- 58
2020-01-20 14:00:00 10.1 38 Sudeste 74 Sudeste 0 -- -- 57
2020-01-20 13:00:00 10.5 37 Sudeste 79 Sudeste 0 -- -- 55
2020-01-20 12:00:00 10.6 36 Sudeste 76 Sudeste 0 -- -- 55
2020-01-20 11:00:00 10.6 32 Sudeste 64 Sudeste 0 -- -- 53
2020-01-20 10:00:00 10.5 26 Sudeste 63 Sudeste 0 -- -- 50
2020-01-20 09:00:00 10.4 26 Sudeste 54 Sudeste 0 -- -- 48
2020-01-20 08:00:00 10.7 26 Sur 63 Sudeste 0 -- -- 46
2020-01-20 07:00:00 11.1 27 Sur 70 Sudeste 0 -- -- 44
2020-01-20 06:00:00 11.3 27 Sur 60 Sudeste 0 -- -- 40
2020-01-20 05:00:00 11.1 20 Sudeste 58 Sudeste 0 -- -- 39
2020-01-20 04:00:00 11.4 17 Sudeste 53 Sudeste 0 -- -- 37
2020-01-20 03:00:00 11 17 Sur 46 Sudeste 0 -- -- 36
2020-01-20 02:00:00 10.8 14 Sur 38 Sur 0 -- -- 34
2020-01-20 01:00:00 10.9 15 Sur 45 Sudeste 0 -- -- 31
2020-01-20 00:00:00 10.8 19 Sur 47 Sudeste 0 -- -- 32
2020-01-19 23:00:00 11 14 Sur 35 Sudeste 0 -- -- 32
2020-01-19 22:00:00 10.7 15 Sur 40 Sudeste 0 -- -- 34
2020-01-19 21:00:00 10.8 16 Sur 37 Sur 0 -- -- 33
2020-01-19 20:00:00 11 17 Sur 43 Sur 0 -- -- 31
2020-01-19 19:00:00 11.3 16 Sur 42 Sur 0 -- -- 29
2020-01-19 18:00:00 11.1 20 Sur 46 Sudeste 0 -- -- 28
2020-01-19 17:00:00 11.7 14 Sudeste 40 Sudeste 0 -- -- 27
2020-01-19 16:00:00 12.3 13 Sur 30 Sur 0 -- -- 31
2020-01-19 15:00:00 11.4 8 Sur 37 Este 0 -- -- 38
2020-01-19 14:00:00 11.2 9 Sudeste 26 Este 0 -- -- 39
2020-01-19 13:00:00 10.9 12 Sudeste 26 Sur 0 -- -- 43
2020-01-19 12:00:00 10.4 8 Sur 33 Sudeste 0 -- -- 51
2020-01-19 11:00:00 10 9 Sudeste 36 Este 0 -- -- 60
2020-01-19 10:00:00 9.6 14 Sudeste 39 Sudeste 0 -- -- 69
2020-01-19 09:00:00 9.4 15 Sudeste 45 Sudeste 0 -- -- 73
2020-01-19 08:00:00 9.8 20 Este 46 Sudeste 0 -- -- 74
2020-01-19 07:00:00 9.6 17 Sudeste 49 Sudeste 0 -- -- 82
2020-01-19 06:00:00 10 12 Sudeste 33 Sudeste 0.8 -- -- 88
2020-01-19 05:00:00 10.6 13 Sudeste 30 Sudeste 1 -- -- 89
2020-01-19 04:00:00 11.3 12 Sudeste 30 Sur 0 -- -- 85
2020-01-19 03:00:00 11.8 9 Sudeste 26 Sudeste 0 -- -- 81
2020-01-19 02:00:00 11.8 5 Sudeste 16 Sudeste 0 -- -- 84
2020-01-19 01:00:00 9.9 3 Sur 9 Sudeste 0 -- -- 91
2020-01-19 00:00:00 10.1 2 Noroeste 4 Noroeste 0 -- -- 91
2020-01-18 23:00:00 10.3 0 Calma 3 Noroeste 0 -- -- 90
2020-01-18 22:00:00 10.4 0 Calma 3 Noroeste 0 -- -- 87
2020-01-18 21:00:00 10.3 2 Noroeste 4 Noroeste 0 -- -- 85
2020-01-18 20:00:00 10 0 Calma 4 Norte 0 -- -- 84
2020-01-18 19:00:00 10.1 2 Norte 15 Norte 0 -- -- 81
2020-01-18 18:00:00 11.2 6 Norte 14 Norte 0 -- -- 74
2020-01-18 17:00:00 10.9 2 Oeste 12 Norte 0 -- -- 75
2020-01-18 16:00:00 12.7 7 Norte 21 Norte 0 -- -- 64
2020-01-18 15:00:00 13.6 6 Norte 17 Norte 0 -- -- 58
2020-01-18 14:00:00 13.6 4 Nordeste 16 Norte 0 -- -- 53
2020-01-18 13:00:00 13.9 4 Oeste 13 Sudeste 0 -- -- 48
2020-01-18 12:00:00 14.1 8 Sur 14 Sur 0 -- -- 54
2020-01-18 11:00:00 11.3 9 Nordeste 23 Norte 0 -- -- 52
2020-01-18 10:00:00 9.9 12 Nordeste 30 Noroeste 0 -- -- 54
2020-01-18 09:00:00 9.3 13 Norte 29 Norte 0 -- -- 54
2020-01-18 08:00:00 9.1 16 Noroeste 33 Noroeste 0 -- -- 55
2020-01-18 07:00:00 8.8 14 Norte 31 Noroeste 0 -- -- 58
2020-01-18 06:00:00 9.5 4 Noroeste 15 Noroeste 0 -- -- 64
2020-01-18 05:00:00 7.6 4 Noroeste 10 Norte 0 -- -- 64
2020-01-18 04:00:00 8.7 6 Norte 15 Noroeste 0 -- -- 59
2020-01-18 03:00:00 7.8 9 Norte 20 Norte 0 -- -- 59
2020-01-18 02:00:00 9 9 Norte 23 Norte 0 -- -- 54
2020-01-18 01:00:00 9.4 8 Norte 19 Norte 0 -- -- 53
2020-01-18 00:00:00 8.6 8 Norte 13 Norte 0 -- -- 58
2020-01-17 23:00:00 7.9 5 Norte 8 Norte 0 -- -- 62
2020-01-17 22:00:00 8.5 3 Noroeste 6 Noroeste 0 -- -- 61
2020-01-17 21:00:00 9.4 5 Noroeste 13 Noroeste 0 -- -- 59
2020-01-17 20:00:00 11.1 2 Noroeste 18 Nordeste 0 -- -- 57
2020-01-17 19:00:00 14.3 6 Norte 36 Noroeste 0 -- -- 44
2020-01-17 18:00:00 15.2 15 Norte 33 Noroeste 0 -- -- 46
2020-01-17 17:00:00 15.7 11 Norte 31 Noroeste 0 -- -- 52
2020-01-17 16:00:00 16.4 11 Norte 41 Norte 0 -- -- 51
2020-01-17 15:00:00 17.3 11 Norte 28 Norte 0 -- -- 48
2020-01-17 14:00:00 17.7 14 Norte 28 Noroeste 0 -- -- 46
2020-01-17 13:00:00 16.8 13 Norte 31 Norte 0 -- -- 51
2020-01-17 12:00:00 15.7 13 Noroeste 32 Norte 0 -- -- 54
2020-01-17 11:00:00 13.6 7 Norte 23 Noroeste 0 -- -- 72
2020-01-17 10:00:00 12.1 10 Norte 19 Noroeste 0 -- -- 79
2020-01-17 09:00:00 9.4 2 Norte 14 Noroeste 0 -- -- 93
2020-01-17 08:00:00 10 8 Noroeste 17 Norte 0 -- -- 93
2020-01-17 07:00:00 10.7 9 Norte 18 Noroeste 0 -- -- 92
2020-01-17 06:00:00 11.1 8 Noroeste 14 Noroeste 0 -- -- 90
2020-01-17 05:00:00 10.9 5 Norte 15 Noroeste 0 -- -- 91
2020-01-17 04:00:00 10.1 3 Norte 13 Noroeste 0 -- -- 93
2020-01-17 03:00:00 11.6 4 Norte 12 Norte 0 -- -- 90
2020-01-17 02:00:00 12.5 6 Norte 15 Nordeste 0 -- -- 90
2020-01-17 01:00:00 11.4 4 Norte 9 Norte 0 -- -- 99
2020-01-17 00:00:00 9.8 0 Calma 4 Norte 0 -- -- 99
2020-01-16 23:00:00 9.1 0 Calma 3 Norte 0 -- -- 98
2020-01-16 22:00:00 9.3 0 Calma 5 Noroeste 0 -- -- 97
2020-01-16 21:00:00 9.9 0 Calma 4 Norte 0 -- -- 97
2020-01-16 20:00:00 9.5 2 Norte 4 Norte 0 -- -- 97
2020-01-16 19:00:00 9.1 0 Calma 4 Noroeste 0 -- -- 95
2020-01-16 18:00:00 9.9 0 Calma 8 Norte 0 -- -- 92
2020-01-16 17:00:00 10.8 0 Calma -- -- -- -- -- 87
2020-01-16 16:00:00 -- -- -- -- -- -- -- -- --
2020-01-16 15:00:00 14.8 3 Norte 17 Norte 0 -- -- 68
2020-01-16 14:00:00 14.2 7 Norte 13 Norte 0 -- -- 71
2020-01-16 13:00:00 14 5 Sudoeste 12 Sur 0 -- -- 68
2020-01-16 12:00:00 13.8 4 Oeste 9 Sudoeste 0 -- -- 66
2020-01-16 11:00:00 12.7 3 Sur 5 Sur 0 -- -- 75
2020-01-16 10:00:00 8.7 0 Calma 2 Sur 0 -- -- 94
2020-01-16 09:00:00 5.6 2 Noroeste 3 Noroeste 0 -- -- 98
2020-01-16 08:00:00 5.2 0 Calma 2 Norte 0 -- -- 98
2020-01-16 07:00:00 5.3 0 Calma 4 Noroeste 0 -- -- 98
2020-01-16 06:00:00 5.6 0 Calma 4 Noroeste 0 -- -- 97
2020-01-16 05:00:00 5.5 0 Calma 4 Noroeste 0 -- -- 96
2020-01-16 04:00:00 5.5 0 Calma 3 Noroeste 0 -- -- 95
2020-01-16 03:00:00 5.7 0 Calma 3 Noroeste 0 -- -- 94
2020-01-16 02:00:00 5.8 0 Calma 4 Noroeste 0 -- -- 94
2020-01-16 01:00:00 5.9 0 Calma 3 Noroeste 0 -- -- 93
2020-01-16 00:00:00 6.4 0 Calma 4 Norte 0 -- -- 91
2020-01-15 23:00:00 6.7 2 Noroeste 4 Noroeste 0 -- -- 89
2020-01-15 22:00:00 7 0 Calma 3 Norte 0 -- -- 87
2020-01-15 21:00:00 7.9 0 Calma 9 Noroeste 0 -- -- 86
2020-01-15 20:00:00 8.8 4 Norte 8 Noroeste 0 -- -- 86
2020-01-15 19:00:00 9.9 5 Norte 12 Norte 0 -- -- 81
2020-01-15 18:00:00 11.5 6 Norte 18 Noroeste 0 -- -- 71
2020-01-15 17:00:00 11.9 8 Norte 16 Norte 0 -- -- 70
2020-01-15 16:00:00 12.2 10 Norte 23 Norte 0 -- -- 69
2020-01-15 15:00:00 13.4 10 Norte 20 Norte 0 -- -- 58
2020-01-15 14:00:00 13.4 6 Norte 17 Norte 0 -- -- 59
2020-01-15 13:00:00 13.1 7 Norte 13 Norte 0 -- -- 61
2020-01-15 12:00:00 13.4 3 Sur 6 Sur 0 -- -- 67
2020-01-15 11:00:00 11.1 2 Sur 4 Sur 0 -- -- 85
2020-01-15 10:00:00 7.8 0 Calma 3 Norte 0 -- -- 100
2020-01-15 09:00:00 5.1 0 Calma 2 Noroeste 0 -- -- 99
2020-01-15 08:00:00 4.9 0 Calma 0 Calma 0 -- -- 99
2020-01-15 07:00:00 5 0 Calma 2 Noroeste 0 -- -- 99
2020-01-15 06:00:00 4.9 0 Calma 2 Norte 0 -- -- 99
2020-01-15 05:00:00 4.9 0 Calma 2 Noroeste 0 -- -- 99
2020-01-15 04:00:00 4.9 0 Calma 0 Calma 0 -- -- 98
2020-01-15 03:00:00 5.2 0 Calma 3 Noroeste 0 -- -- 98
2020-01-15 02:00:00 5.5 0 Calma 2 Noroeste 0 -- -- 98
2020-01-15 01:00:00 5.8 0 Calma 2 Noroeste 0 -- -- 97
2020-01-15 00:00:00 5.9 0 Calma 2 Norte 0 -- -- 96
2020-01-14 23:00:00 6.7 0 Calma 3 Noroeste 0 -- -- 96
2020-01-14 22:00:00 7.1 0 Calma 5 Norte 0 -- -- 94
2020-01-14 21:00:00 7.9 0 Calma 13 Nordeste 0 -- -- 92
2020-01-14 20:00:00 7.7 2 Noroeste 4 Noroeste 0 -- -- 93
2020-01-14 19:00:00 8 0 Calma 4 Noroeste 0 -- -- 90
2020-01-14 18:00:00 8.7 2 Noroeste 5 Nordeste 0 -- -- 86
2020-01-14 17:00:00 9.4 0 Calma 10 Norte 0 -- -- 80
2020-01-14 16:00:00 11.5 3 Norte 17 Nordeste 0 -- -- 68
2020-01-14 15:00:00 13.6 8 Norte 18 Norte 0 -- -- 57
2020-01-14 14:00:00 13.6 6 Norte 19 Norte 0 -- -- 51
2020-01-14 13:00:00 13.9 7 Norte 14 Norte 0 -- -- 49
2020-01-14 12:00:00 13 2 Norte 6 Sur 0 -- -- 56
2020-01-14 11:00:00 10.3 3 Sur 5 Sur 0 -- -- 75
2020-01-14 10:00:00 6.9 0 Calma 2 Norte 0 -- -- 99
2020-01-14 09:00:00 5 0 Calma 3 Norte 0 -- -- 99
2020-01-14 08:00:00 5 0 Calma 2 Norte 0 -- -- 98
2020-01-14 07:00:00 4.9 2 Noroeste 4 Norte 0 -- -- 99
2020-01-14 06:00:00 4.8 0 Calma 3 Noroeste 0 -- -- 98
2020-01-14 05:00:00 5 0 Calma 3 Sur 0 -- -- 96
2020-01-14 04:00:00 6 0 Calma 12 Noroeste 0 -- -- 94
2020-01-14 03:00:00 6.3 3 Noroeste 9 Noroeste 0 -- -- 99
2020-01-14 02:00:00 6.3 0 Calma 5 Noroeste 0 -- -- 97
2020-01-14 01:00:00 6 0 Calma 2 Norte 0 -- -- 96
2020-01-14 00:00:00 6 0 Calma 2 Nordeste 0 -- -- 94
2020-01-13 23:00:00 6.7 0 Calma 10 Noroeste 0 -- -- 89
2020-01-13 22:00:00 6.5 3 Noroeste 8 Noroeste 0 -- -- 94
2020-01-13 21:00:00 6.7 0 Calma 7 Norte 0 -- -- 89
2020-01-13 20:00:00 8.7 4 Norte 12 Norte 0 -- -- 82
2020-01-13 19:00:00 9.9 6 Norte 15 Norte 0 -- -- 79
2020-01-13 18:00:00 10.6 9 Norte 17 Norte 0 -- -- 76
2020-01-13 17:00:00 11.2 9 Norte 19 Norte 0 -- -- 76
2020-01-13 16:00:00 11.7 10 Norte 19 Norte 0 -- -- 73
2020-01-13 15:00:00 12.1 10 Norte 19 Norte 0 -- -- 60
2020-01-13 14:00:00 12 8 Norte 17 Noroeste 0 -- -- 62
2020-01-13 13:00:00 11.8 6 Norte 16 Norte 0 -- -- 54
2020-01-13 12:00:00 11.7 8 Norte 16 Noroeste 0 -- -- 51
2020-01-13 11:00:00 10.5 2 Este 5 Sudeste 0 -- -- 64
2020-01-13 10:00:00 6.6 0 Calma 4 Noroeste 0 -- -- 78
2020-01-13 09:00:00 3.5 0 Calma 2 Noroeste 0 -- -- 87
2020-01-13 08:00:00 2.7 0 Calma 3 Norte 0 -- -- 88
2020-01-13 07:00:00 2.7 0 Calma 3 Norte 0 -- -- 88
2020-01-13 06:00:00 3.1 0 Calma 5 Norte 0 -- -- 86
2020-01-13 05:00:00 3.2 0 Calma 6 Noroeste 0 -- -- 90
2020-01-13 04:00:00 3.4 0 Calma 3 Noroeste 0 -- -- 90
2020-01-13 03:00:00 4 0 Calma 9 Noroeste 0 -- -- 95
2020-01-13 02:00:00 4.1 0 Calma 2 Noroeste 0 -- -- 97
2020-01-13 01:00:00 4.6 0 Calma 2 Noroeste 0 -- -- 97
2020-01-13 00:00:00 4.6 0 Calma 2 Norte 0 -- -- 97
2020-01-12 23:00:00 4.2 0 Calma 3 Noroeste 0 -- -- 95
2020-01-12 22:00:00 4.8 0 Calma 4 Noroeste 0 -- -- 95
2020-01-12 21:00:00 5.1 0 Calma 4 Noroeste 0 -- -- 94
2020-01-12 20:00:00 5.6 0 Calma 7 Norte 0 -- -- 90
2020-01-12 19:00:00 6.9 2 Noroeste 9 Noroeste 0 -- -- 90
2020-01-12 18:00:00 8 0 Calma 8 Noroeste 0 -- -- 88
2020-01-12 17:00:00 8.4 3 Norte 8 Noroeste 0 -- -- 85
2020-01-12 16:00:00 10.6 2 Noroeste 7 Oeste 0 -- -- 73
2020-01-12 15:00:00 13.2 3 Sur 11 Sur 0 -- -- 59
2020-01-12 14:00:00 13.4 5 Sur 13 Sur 0 -- -- 57
2020-01-12 13:00:00 13.3 5 Sur 15 Sur 0 -- -- 55
2020-01-12 12:00:00 13.3 3 Sur 10 Sur 0 -- -- 63
2020-01-12 11:00:00 11.4 8 Sur 15 Este 0 -- -- 66
2020-01-12 10:00:00 10 4 Sudoeste 18 Noroeste 0 -- -- 67
2020-01-12 09:00:00 8 12 Noroeste 23 Nordeste 0 -- -- 71
2020-01-12 08:00:00 7.3 11 Nordeste 23 Nordeste 0 -- -- 73
2020-01-12 07:00:00 7 10 Norte 19 Nordeste 0 -- -- 75
2020-01-12 06:00:00 -- -- -- -- -- -- -- -- --
2020-01-12 05:00:00 -- -- -- -- -- -- -- -- --
2020-01-12 04:00:00 -- -- -- -- -- -- -- -- --
2020-01-12 03:00:00 -- -- -- -- -- -- -- -- --
2020-01-12 02:00:00 -- -- -- -- -- -- -- -- --
2020-01-12 01:00:00 -- -- -- -- -- -- -- -- --
2020-01-12 00:00:00 -- -- -- -- -- -- -- -- --
2020-01-11 23:00:00 -- -- -- -- -- -- -- -- --
2020-01-11 22:00:00 -- -- -- -- -- -- -- -- --
2020-01-11 21:00:00 -- -- -- -- -- -- -- -- --
2020-01-11 20:00:00 -- -- -- -- -- -- -- -- --
2020-01-11 19:00:00 -- -- -- -- -- -- -- -- --
2020-01-11 18:00:00 -- -- -- -- -- -- -- -- --
2020-01-11 17:00:00 -- -- -- -- -- -- -- -- --
2020-01-11 16:00:00 -- -- -- -- -- -- -- -- --
2020-01-11 15:00:00 -- -- -- -- -- -- -- -- --
2020-01-11 14:00:00 -- -- -- -- -- -- -- -- --
2020-01-11 13:00:00 -- -- -- -- -- -- -- -- --
2020-01-11 12:00:00 -- -- -- -- -- -- -- -- --
2020-01-11 11:00:00 -- -- -- -- -- -- -- -- --
2020-01-11 10:00:00 -- -- -- -- -- -- -- -- --
2020-01-11 09:00:00 -- -- -- -- -- -- -- -- --
2020-01-11 08:00:00 -- -- -- -- -- -- -- -- --
2020-01-11 07:00:00 -- -- -- -- -- -- -- -- --
2020-01-11 06:00:00 6.9 4 Sudoeste 18 Norte 0 -- -- 84
2020-01-11 05:00:00 7.8 10 Norte 31 Norte 0 -- -- 79
2020-01-11 04:00:00 7.2 15 Norte 27 Nordeste 0 -- -- 84
2020-01-11 03:00:00 5.5 0 Calma 4 Noroeste -- -- -- 94
2020-01-11 02:00:00 7.1 3 Norte 16 Noroeste 0 -- -- 90
2020-01-11 01:00:00 6.1 0 Calma 10 Norte 0 -- -- 92
2020-01-11 00:00:00 8 6 Norte 19 Noroeste 0 -- -- 83
2020-01-10 23:00:00 7.4 7 Norte 17 Noroeste 0 -- -- 88
2020-01-10 22:00:00 6.5 5 Norte 11 Norte 0 -- -- 94
2020-01-10 21:00:00 6.5 0 Calma 9 Noroeste 0 -- -- 95
2020-01-10 20:00:00 6.7 0 Calma 4 Oeste 0 -- -- 95
2020-01-10 19:00:00 7.9 0 Calma 18 Norte 0 -- -- 92
2020-01-10 18:00:00 9.1 5 Norte 14 Nordeste 0 -- -- 92
2020-01-10 17:00:00 10 3 Noroeste 7 Norte 0 -- -- 92
2020-01-10 16:00:00 11.2 2 Noroeste 16 Noroeste 0 -- -- 88
2020-01-10 15:00:00 11.1 7 Norte 22 Norte 0 -- -- 82
2020-01-10 14:00:00 9.9 12 Norte 27 Norte 0 -- -- 87
2020-01-10 13:00:00 9.3 14 Noroeste 26 Noroeste 1 -- -- 91
2020-01-10 12:00:00 9.1 9 Noroeste 22 Noroeste 2.4 -- -- 94
2020-01-10 11:00:00 9.5 5 Noroeste 21 Sur 3.6 -- -- 92
2020-01-10 10:00:00 10.1 8 Sudeste 21 Sudeste 4.2 -- -- 91
2020-01-10 09:00:00 9.9 4 Sudoeste 20 Sudeste 1.2 -- -- 94
2020-01-10 08:00:00 9.6 3 Sur 10 Sudoeste 4 -- -- 94
2020-01-10 07:00:00 10.6 6 Noroeste 13 Noroeste 3.2 -- -- 93
2020-01-10 06:00:00 10.7 0 Calma 5 Noroeste 0 -- -- 90
2020-01-10 05:00:00 11 3 Noroeste 8 Noroeste 0 -- -- 88
2020-01-10 04:00:00 10.9 0 Calma 10 Noroeste 0 -- -- 89
2020-01-10 03:00:00 11.2 2 Norte 11 Norte 0 -- -- 87
2020-01-10 02:00:00 11.6 8 Noroeste 21 Noroeste 0 -- -- 85
2020-01-10 01:00:00 10.8 4 Norte 12 Norte 0 -- -- 87
2020-01-10 00:00:00 11 5 Norte 18 Noroeste 0 -- -- 85
2020-01-09 23:00:00 10.7 6 Norte 14 Noroeste 0 -- -- 87
2020-01-09 22:00:00 10.4 4 Norte 12 Norte 0 -- -- 86
2020-01-09 21:00:00 10.1 4 Norte 18 Noroeste 0 -- -- 86
2020-01-09 20:00:00 11.6 9 Norte 18 Nordeste 0 -- -- 82
2020-01-09 19:00:00 11.5 9 Norte 15 Norte 0 -- -- 82
2020-01-09 18:00:00 11 0 Calma 19 Norte 0 -- -- 84
2020-01-09 17:00:00 12.2 10 Norte 20 Nordeste 0 -- -- 80
2020-01-09 16:00:00 12.8 9 Norte 20 Norte 0 -- -- 79
2020-01-09 15:00:00 14 6 Norte 19 Norte 0 -- -- 77
2020-01-09 14:00:00 14.4 5 Norte 17 Norte 0 -- -- 76
2020-01-09 13:00:00 14 6 Nordeste 18 Sur 0 -- -- 77
2020-01-09 12:00:00 14.2 5 Noroeste 13 Norte 0 -- -- 77
2020-01-09 11:00:00 12.1 3 Sur 4 Sudoeste 0 -- -- 97
2020-01-09 10:00:00 10.1 0 Calma 4 Sur 0 -- -- 100
2020-01-09 09:00:00 7.3 0 Calma 3 Norte 0 -- -- 100
2020-01-09 08:00:00 7.2 2 Noroeste 4 Norte 0 -- -- 100
2020-01-09 07:00:00 6.8 0 Calma 4 Norte 0 -- -- 99
2020-01-09 06:00:00 6.7 2 Noroeste 4 Norte 0 -- -- 100
2020-01-09 05:00:00 6.4 0 Calma 2 Norte 0 -- -- 99
2020-01-09 04:00:00 6.4 0 Calma 3 Noroeste 0 -- -- 99
2020-01-09 03:00:00 6.7 0 Calma 3 Noroeste 0 -- -- 99
2020-01-09 02:00:00 6.7 0 Calma 2 Noroeste 0 -- -- 99
2020-01-09 01:00:00 6.9 0 Calma 3 Norte 0 -- -- 99
2020-01-09 00:00:00 7.1 0 Calma 3 Noroeste 0 -- -- 98
2020-01-08 23:00:00 7.4 0 Calma 3 Norte 0 -- -- 98
2020-01-08 22:00:00 7.6 0 Calma 4 Norte 0 -- -- 97
2020-01-08 21:00:00 8.2 0 Calma 3 Norte 0 -- -- 96
2020-01-08 20:00:00 8.6 0 Calma 3 Noroeste 0 -- -- 95
2020-01-08 19:00:00 9.4 0 Calma 5 Noroeste 0 -- -- 93
2020-01-08 18:00:00 10.1 2 Noroeste 5 Noroeste 0 -- -- 91
2020-01-08 17:00:00 11.2 0 Calma 4 Noroeste 0 -- -- 87
2020-01-08 16:00:00 12.7 0 Calma 8 Sudoeste 0 -- -- 80
2020-01-08 15:00:00 15.2 5 Sur 11 Sudoeste 0 -- -- 69
2020-01-08 14:00:00 16 4 Sur 11 Sur 0 -- -- 66
2020-01-08 13:00:00 15.7 5 Sur 13 Sudoeste 0 -- -- 66
2020-01-08 12:00:00 15.6 4 Sur 10 Noroeste 0 -- -- 67
2020-01-08 11:00:00 14 0 Calma 5 Sur 0 -- -- 81
2020-01-08 10:00:00 10 0 Calma 2 Noroeste 0 -- -- 94
2020-01-08 09:00:00 6.3 0 Calma 3 Norte 0 -- -- 96
2020-01-08 08:00:00 6.4 0 Calma 5 Sudeste 0 -- -- 94
2020-01-08 07:00:00 5.3 0 Calma 4 Norte 0 -- -- 96
2020-01-08 06:00:00 4.8 0 Calma 4 Norte 0 -- -- 95
2020-01-08 05:00:00 5.1 2 Norte 4 Norte 0 -- -- 96
2020-01-08 04:00:00 5.2 0 Calma 6 Norte 0 -- -- 94
2020-01-08 03:00:00 4.8 2 Norte 5 Noroeste 0 -- -- 93
2020-01-08 02:00:00 5 0 Calma 4 Nordeste 0 -- -- 91
2020-01-08 01:00:00 5.8 3 Noroeste 7 Sudoeste 0 -- -- 85
2020-01-08 00:00:00 6.2 0 Calma 4 Noroeste 0 -- -- 85
2020-01-07 23:00:00 6.4 0 Calma 6 Sur 0 -- -- 83
2020-01-07 22:00:00 6.1 0 Calma 4 Sudoeste 0 -- -- 85
2020-01-07 21:00:00 6.3 0 Calma 9 Sur 0 -- -- 86
2020-01-07 20:00:00 6.7 0 Calma 3 Noroeste 0 -- -- 93
2020-01-07 19:00:00 7.6 0 Calma 4 Noroeste 0 -- -- 90
2020-01-07 18:00:00 8.5 0 Calma 4 Norte 0 -- -- 84
2020-01-07 17:00:00 9.9 2 Noroeste 5 Sur 0 -- -- 84
2020-01-07 16:00:00 12.4 5 Sudoeste 14 Sudoeste 0 -- -- 72
2020-01-07 15:00:00 13.2 5 Oeste 13 Oeste 0 -- -- 73
2020-01-07 14:00:00 13.8 5 Oeste 13 Oeste 0 -- -- 67
2020-01-07 13:00:00 14 6 Sur 10 Sur 0 -- -- 68
2020-01-07 12:00:00 13.3 5 Sur 10 Sur 0 -- -- 74
2020-01-07 11:00:00 12.2 5 Sur 6 Sur 0 -- -- 74
2020-01-07 10:00:00 8.2 0 Calma 4 Sur 0 -- -- 100
2020-01-07 09:00:00 5.4 0 Calma 4 Norte 0 -- -- 100
2020-01-07 08:00:00 4.9 0 Calma 3 Sudeste 0 -- -- 99
2020-01-07 07:00:00 5.3 0 Calma 3 Noroeste 0 -- -- 99
2020-01-07 06:00:00 5.3 0 Calma 3 Noroeste 0 -- -- 99
2020-01-07 05:00:00 5.2 2 Noroeste 3 Norte 0 -- -- 99
2020-01-07 04:00:00 5.2 0 Calma 2 Norte 0 -- -- 99
2020-01-07 03:00:00 5.6 2 Noroeste 3 Noroeste 0 -- -- 99
2020-01-07 02:00:00 5.6 0 Calma 4 Noroeste 0 -- -- 98
2020-01-07 01:00:00 5.7 0 Calma 3 Norte 0 -- -- 98
2020-01-07 00:00:00 6 0 Calma 4 Noroeste 0 -- -- 98
2020-01-06 23:00:00 6.3 0 Calma 4 Norte 0 -- -- 98
2020-01-06 22:00:00 6.6 0 Calma 4 Norte 0 -- -- 97
2020-01-06 21:00:00 7 0 Calma 4 Noroeste 0 -- -- 97
2020-01-06 20:00:00 7.4 0 Calma 3 Norte 0 -- -- 96
2020-01-06 19:00:00 7.8 2 Noroeste 3 Norte 0 -- -- 94
2020-01-06 18:00:00 8.6 0 Calma 5 Noroeste 0 -- -- 90
2020-01-06 17:00:00 9.7 0 Calma 4 Norte 0 -- -- 87
2020-01-06 16:00:00 11.6 0 Calma 9 Sur 0 -- -- 80
2020-01-06 15:00:00 14.2 5 Sur 13 Sur 0 -- -- 68
2020-01-06 14:00:00 14.9 6 Sur 12 Sur 0 -- -- 65
2020-01-06 13:00:00 15.1 4 Sur 11 Sur 0 -- -- 61
2020-01-06 12:00:00 14.6 7 Sur 11 Sur 0 -- -- 66
2020-01-06 11:00:00 13.2 4 Sur 8 Sur 0 -- -- 74
2020-01-06 10:00:00 9.2 0 Calma 3 Sudeste 0 -- -- 90